SNUGLITE 2
1 52899U 22065F   26160.37800171  .00000877  00000-0  17522-3 0  9992
2 52899  98.2193 305.2230 0008442  55.0980 305.1015 14.64333234209859
UmKA 1 (RS40S)
1 57172U 23091G   26160.52714999  .00005472  00000-0  25129-3 0  9998
2 57172  97.5055 219.2542 0013874 141.6738 218.5486 15.20728331162840
CubeBel-2 (EU11S)
1 57175U 23091K   26160.52716414  .00011512  00000-0  41101-3 0  9995
2 57175  97.5055 223.6765 0011100 138.0300 222.1792 15.28964560163132
RS-38S
1 57189U 23091Z   26160.52504840  .00015332  00000-0  44197-3 0  9990
2 57189  97.5095 229.8581 0008656 100.5439 259.6780 15.35780089163518
SONATE-2
1 59112U 24043Q   26160.36898837  .00034035  00000-0  45197-3 0  9992
2 59112  97.5522 310.2893 0006662 222.2794 137.7948 15.58132501126676
GRBBeta
1 60237U 24128C   26160.52120619  .00003281  00000-0  23080-3 0  9996
2 60237  61.9898 243.1615 0041674 133.0330 227.4266 15.06588239105112
Curium One
1 60242U 24128H   26160.50105376  .00006518  00000-0  37855-3 0  9994
2 60242  61.9783 232.9956 0040999 128.8704 231.6062 15.12413314105299
ROBUSTA-3A
1 60243U 24128J   26160.52772934  .00006234  00000-0  37064-3 0  9994
2 60243  61.9859 235.3282 0042181 126.5118 233.9874 15.11585372105268
CatSat
1 60246U 24125J   26160.49766945  .00054428  00000-0  72327-3 0  9994
2 60246  97.2097  12.9028 0021978 206.7680 153.2444 15.57746504106196
HYPERVIEW-1G (RS66S)
1 61772U 24199AP  26160.50125704  .00071217  00000-0  50272-3 0  9994
2 61772  97.2889  39.8433 0002236 269.4785  90.6223 15.73836516133466
AO-123
1 61781U 24199AY  26160.54099932  .00006941  00000-0  20257-3 0  9993
2 61781  97.3015  29.2811 0013094 343.8400  16.2424 15.35565591132754
JINJUSat 1B
1 63210U 25052A   26160.44558343  .00015262  00000-0  47672-3 0  9992
2 63210  97.4015  57.1909 0005381 107.4571 252.7259 15.33260241 68916
NUSHSAT 1
1 63211U 25052B   26160.43641149  .00018554  00000-0  53645-3 0  9993
2 63211  97.3990  57.7212 0005169 108.7766 251.4039 15.35666217 68956
TEVEL2-4
1 63213U 25052D   26160.42210497  .00016258  00000-0  49079-3 0  9997
2 63213  97.3919  56.8032 0004488 117.1675 243.0026 15.34336880 68924
TEVEL2-5
1 63214U 25052E   26160.44174179  .00016872  00000-0  51188-3 0  9992
2 63214  97.3913  56.7715 0004440 119.7203 240.4482 15.34169212 68929
TEVEL2-6
1 63215U 25052F   26160.45389219  .00017006  00000-0  51654-3 0  9995
2 63215  97.3915  56.7681 0004471 119.5298 240.6391 15.34131711 68924
TEVEL2-1
1 63217U 25052H   26160.21926554  .00015298  00000-0  47283-3 0  9994
2 63217  97.3890  56.1670 0004303 128.3917 231.7713 15.33600892 68873
TEVEL2-3
1 63218U 25052J   26160.27943529  .00016163  00000-0  49846-3 0  9991
2 63218  97.3888  56.2474 0004412 129.8518 230.3113 15.33659205 68880
TEVEL2-2
1 63219U 25052K   26159.69763688  .00018164  00000-0  56087-3 0  9990
2 63219  97.3887  55.6477 0004230 131.0442 229.1167 15.33595395 68799
TEVEL2-9
1 63237U 25052AD  26160.18680802  .00014556  00000-0  47809-3 0  9995
2 63237  97.3949  55.5291 0007021 153.2929 206.8676 15.31651687 68802
TEVEL2-7
1 63238U 25052AE  26160.42222552  .00013645  00000-0  45228-3 0  9998
2 63238  97.3953  55.6832 0007142 153.2033 206.9579 15.31369912 68833
TEVEL2-8
1 63239U 25052AF  26160.43039691  .00013793  00000-0  45738-3 0  9990
2 63239  97.3952  55.6688 0007154 153.7009 206.4597 15.31353738 68837
SPIRONE
1 66657U 25274H   26160.34934085  .00002415  00000-0  23444-3 0  9993
2 66657  97.7478  89.7526 0013304  46.5011 313.7313 14.93512539 29058
K-HERO
1 66660U 25274L   26160.55706555  .00002445  00000-0  23461-3 0  9991
2 66660  97.7486  90.1129 0015300  49.1963 311.0581 14.93934486 29090
SNUGLITE-III DURI
1 66661U 25274M   26160.54504943  .00001946  00000-0  18762-3 0  9991
2 66661  97.7487  90.1214 0015820  49.5738 310.6859 14.93974817 29093
SAKHACUBE-CHOLBON
1 67290U 25313AU  26160.48232710  .00009026  00000-0  36670-3 0  9992
2 67290  97.3928 235.6137 0009692  31.6835 328.4984 15.24751537 24805
RS95S (QMR-KWT-2)
1 67291U 25313AV  26159.16613882  .00011819  00000-0  46084-3 0  9992
2 67291  97.3927 234.4719 0009138  35.3898 324.7945 15.26059007 24613
Ten-Koh2
1 68261U 25241B   26159.94934771  .00005528  00000-0  24001-3 0  9994
2 68261  51.6683 358.8310 0006379 118.0667 242.0957 15.23805123 13650
JACK-002
1 68417U 26067B   26160.45586260  .00005549  00000-0  26614-3 0  9993
2 68417  97.4559 119.1427 0001107  20.6963 339.4316 15.19297783 10773
DISCO 2
1 68431U 26067R   26160.54122532  .00007226  00000-0  34888-3 0  9993
2 68431  97.4595 119.2157 0003539  56.8867 303.2707 15.18957178 10789
HADES-SA (SpinnyONE)
1 68446U 26067AG  26160.11883286  .00015404  00000-0  74213-3 0  9995
2 68446  97.4397 118.5371 0009799 102.6355 257.5975 15.18784835 10709
PARUS-6U1
1 68456U 26067AS  26160.53931149  .00004853  00000-0  24574-3 0  9995
2 68456  97.4546 119.0210 0007656  91.6370 268.5740 15.17436284 10778
SAL-E
1 68458U 26067AU  26160.14028065  .00006109  00000-0  30659-3 0  9995
2 68458  97.4470 118.5696 0008070  99.6262 260.5884 15.17643346 10711
FSI-SAT 2
1 68792U 26088A   26160.38326426  .00003494  00000-0  23830-3 0  9994
2 68792  97.5048 309.8398 0015586 131.1738 229.0837 15.06768236  7110
OrigamiSat 2
1 68795U 26088D   26159.40704979  .00003807  00000-0  24717-3 0  9994
2 68795  97.5070 308.9982 0016493 108.9395 251.3623 15.08528104  6970
ARICA 2
1 68796U 26088E   26160.39997116  .00003643  00000-0  23769-3 0  9996
2 68796  97.5053 309.9643 0017300 104.5444 255.7705 15.08365342  7122
WASEDA-SAT-ZERO-II
1 68797U 26088F   26160.39673223  .00005017  00000-0  32417-3 0  9994
2 68797  97.5049 309.9676 0017102 104.4480 255.8647 15.08553764  7126
MANGARO-II-Piscus
1 68798U 26088G   26160.38799507  .00003033  00000-0  19637-3 0  9993
2 68798  97.5057 309.9852 0020559 107.2791 253.0689 15.08725820  7128
IO-86
1 40931U          25360.30710720  .00000000  00000-0  12800-3 0    00
2 40931   6.0006 332.5373 0012733 338.8432   8.1437 14.79075515    01
LILIUM-4                
1 71922C 26067AC  26089.50133053 -.00014632  00000+0 -74472-3 0    04
2 71922  97.4497  49.1617 0004341   5.9603 355.7042 15.16896692    16
